Location: Waco, TX
(31.5480°N, 97.1670°W)
Time: 13:50:53

ISS - Pass Details

Date: 22 March 2018
Orbit: 403 x 406 km, 51.6° (Epoch: 23 March)

Event Time Altitude Azimuth Distance (km) Brightness Sun altitude
Rises 06:32:43 0° 295° (WNW) 2,319 - -13.0°
Reaches altitude 10° 06:35:22 10° 273° (W) 1,455 - -12.4°
Maximum altitude 06:37:26 16° 233° (SW) 1,152 - -12.0°
Exits shadow 06:37:37 16° 229° (SW) 1,155 -2.0 -11.9°
Drops below altitude 10° 06:39:30 10° 194° (SSW) 1,449 -1.2 -11.5°
Sets 06:42:07 0° 171° (S) 2,302 0.0 -11.0°
